Regional Weather Roundup
Issued by NWS Wakefield, VA

Home | Current Version | Previous Version | Text Only | Print | Product List | Glossary Off
Versions: 1 2 3 4 5 6 7 8 9 10 11 12 13 14 15 16 17 18 19 20 21 22 23 24 25 26 27 28 29 30 31 32 33 34 35 36 37 38 39 40 41 42 43 44 45 46 47 48 49 50

771
ASUS41 KAKQ 171015
RWRAKQ

REGIONAL WEATHER ROUNDUP
NATIONAL WEATHER SERVICE WAKEFIELD VA
500 AM EST TUE JAN 17 2017

Note: "fair" indicates few or no clouds below 12,000 feet with no
significant weather and/or obstructions to visibility. * = Denotes
station may not report precipitation (e.g., rain,snow,etc.),
thunder or fog.

VAZ042-051-052>054-056-171100-
NORTHERN VIRGINIA

CITY           SKY/WX    TMP DP  RH WIND       PRES   REMARKS
WASH NATIONAL  LGT RAIN  41  39  93 S3        30.22F
DULLES         CLOUDY    40  38  93 SE3       30.19F
FORT BELVOIR   CLOUDY    39  38  95 CALM      30.20F
QUANTICO       LGT RAIN  41  40  96 CALM      30.23F
FREDERICKSBRG* CLOUDY    40  40 100 SE3       30.21F
STAFFORD*      LGT RAIN  39  39 100 CALM      30.25F
WARRENTON      CLOUDY    42  39  89 S3        30.18F
CULPEPER*      CLOUDY    42  41  99 S5        30.19F
MANASSAS*      NOT AVBL
LEESBURG*      CLOUDY    43  43 100 MISG      30.21F
WINCHESTER     CLOUDY    36  34  93 CALM      30.17F FOG
FRONT ROYAL*   CLOUDY    39  39 100 CALM      30.16S
LURAY*         PTSUNNY   43  43 100 CALM      30.16F
$$

VAZ048-049-060>072-079>083-171100-
CENTRAL AND SOUTH CENTRAL VIRGINIA

CITY           SKY/WX    TMP DP  RH WIND       PRES   REMARKS
RICHMOND       MOCLDY    42  42 100 S6        30.22F FOG
CHESTERFIELD*  CLOUDY    43  27  52 CALM      30.24F
PETERSBURG*    CLOUDY    39  39 100 CALM      30.23F FOG
HANOVER        CLOUDY    43  40  89 VRB5      30.23F
TAPPAHANNOCK*  PTCLDY    43  42  98 S5        30.23F
QUINTON*       CLOUDY    42  42 100 MISG      30.23F FOG
CHARLOTTSVILLE CLOUDY    42  39  89 S3        30.17F
GORDONSVILLE*  CLOUDY    40  40  99 CALM      30.18F
ORANGE*        LGT RAIN  41  41 100 CALM      30.21F
LOUISA*        CLOUDY    45  43  93 CALM      30.18F
BUMPASS*       CLOUDY    40  40 100 CALM      30.21S
FARMVILLE*     CLOUDY    40  40 100 CALM      30.19F
CREWE*         CLOUDY    41  41 100 CALM      30.21S
FORT PICKETT*  CLOUDY    42  39  88 SW3       30.22S
CHASE CITY*    CLOUDY    43  42  95 CALM      30.22F
CLARKSVILLE*   CLOUDY    43  43 100 CALM      30.22S
SOUTH HILL*    CLOUDY    43  42  97 CALM      30.29S
LAWRENCEVILLE* CLOUDY    43  42  95 MISG      30.23S
EMPORIA*       CLOUDY    41  41 100 NE3       30.25F
$$

VAZ088>098-171100-
SOUTHEAST VIRGINIA

CITY           SKY/WX    TMP DP  RH WIND       PRES   REMARKS
NORFOLK        CLOUDY    45  40  82 S5        30.25F
VIRGINIA BEACH CLOUDY    44  39  82 SE3       30.25F
NORFOLK NAVAL  CLOUDY    46  41  82 S3        30.26F
WEST POINT*    CLOUDY    43  41  93 SE3       30.25F
SALUDA*        CLOUDY    42  40  95 CALM      30.24F
NEWPORT NEWS   CLOUDY    44  41  89 S5        30.24F
LANGLEY AFB    CLOUDY    44  40  87 S5        30.24F
FORT EUSTIS    CLOUDY    44  40  86 CALM      30.22F
WILLIAMSBURG*  CLOUDY    45  43  93 CALM      30.25F
HR EXEC AP*    CLOUDY    45  37  76 CALM      30.23F
FRANKLIN*      CLOUDY    44  41  90 S5        30.25F
US460-WAKEFLD  CLOUDY    44  42  93 CALM      30.24F
$$

VAZ020-022-025-037-045-171100-
WEST CENTRAL AND SOUTHWEST VIRGINIA

CITY           SKY/WX    TMP DP  RH WIND       PRES   REMARKS
STAUNTON*      CLOUDY    41  40  97 CALM      30.18F
WAYNESBORO*    FAIR      40  40  97 CALM      30.17S
HOT SPRINGS VA CLOUDY    50  43  76 SW14      30.14S
LYNCHBURG      MOCLDY    39  36  89 CALM      30.20F
DANVILLE       CLOUDY    44  42  93 SW3       30.22F
SOUTH BOSTON*  CLOUDY    41  39  95 CALM      30.22S
MARTINSVILLE   CLOUDY    47  44  91 SW5       30.23S
ROANOKE        FOG       41  41 100 CALM      30.20F VSB 1/4
BLACKSBURG     MOCLDY    42  42 100 CALM      30.21S FOG
DUBLIN*        FOG       44  44 100 CALM      30.19S VSB 1/2
MARION*        FOG       45  44  96 CALM      30.21R VSB 1/4
HILLSVILLE*    CLOUDY    49  49 100 S6        30.17S
RICHLANDS*     RAIN     N/A N/A N/A SW5       30.14S
WISE*          RAIN      54  46  76 S7        30.15S
ABINGDON*      CLOUDY    51  49  93 CALM      30.15F
$$

MDZ021>025-VAZ099-100-171100-
SOUTHERN MARYLAND AND THE DELMARVA PENINSULA

CITY           SKY/WX    TMP DP  RH WIND       PRES   REMARKS
PATUXENT RIVER MOCLDY    41  37  86 CALM      30.24F
BAY BRIDGE APT LGT RAIN  39  37  93 SE5       30.23F FOG
LEONARDTOWN    CLOUDY    39  36  87 CALM      30.24F
DOVER          LGT RAIN  39  39 100 CALM      30.24R
GEORGETOWN     CLOUDY    41  36  82 SE3       30.25F
EASTON         PTCLDY    40  37  90 CALM      30.29R
CAMBRIDGE      CLOUDY    37  36  93 CALM      30.25R
SALISBURY      CLOUDY    42  37  82 CALM      30.25F
OCEAN CITY     CLOUDY    43  38  82 CALM      30.25F
WALLOPS ISLAND CLOUDY    42  39  89 SW5       30.26F
ACCOMACK*      CLOUDY    44  40  85 SW3       30.26R
$$

NCZ012>017-030>032-171100-
NORTH CENTRAL AND EASTERN NORTH CAROLINA

CITY           SKY/WX    TMP DP  RH WIND       PRES   REMARKS
ROANOKE RAPIDS CLOUDY    45  43  93 SE5       30.24F
RALEIGH        CLOUDY    48  45  89 SW7       30.24F FOG
ELIZABETH CITY CLOUDY    42  39  89 SE3       30.26F
AHOSKIE*         N/A     43  40  91 CALM      30.25F
EDENTON*       CLOUDY    46  42  88 CALM      30.27F
CURRITUCK*     CLOUDY    41  41 100 CALM      30.27F
KILL DEVIL HLS NOT AVBL
MANTEO         CLOUDY    44  43  97 CALM      30.27S
CAPE HATTERAS  CLOUDY    48  44  86 N5        30.26F
TARBORO*       NOT AVBL
GOLDSBORO      CLOUDY    46  46 100 CALM      30.23F
WASHINGTON     CLOUDY    45  40  85 CALM      30.26F
GREENVILLE     CLOUDY    46  43  87 CALM      30.26F
NEW BERN       CLOUDY    45  42  89 CALM      30.27S
WILMINGTON     MOCLDY    47  46  97 N3        30.25S
$$

VAZ048-171100-
ELSEWHERE

CITY           SKY/WX    TMP DP  RH WIND       PRES   REMARKS
HARRISBURG PA  CLOUDY    36  30  79 CALM      30.21F
BALTIMORE      LGT RAIN  38  37  97 SE5       30.21F
ANNAPOLIS      LGT RAIN  40  36  86 SE5       30.22F
ANDREWS AFB    CLOUDY    39  38  93 S6        30.20F
PHILADELPHIA   CLOUDY    39  30  70 CALM      30.26S
HENDERSON NC   CLOUDY    43  39  86 SW3       30.23S
GREENSBORO     CLOUDY    47  47 100 SW7       30.21F FOG
ROCKY MOUNT    CLOUDY    47  44  90 S3        30.25F
$$

VAZ100-171100-
MARINE

STATION/POSITION TIME  TEMP    WIND        PRES    WAVE   SWELL
                       AIR SEA DIR/SP/G            HT/PER HT/PER
                 (UTC) (F)     (DEG/KT/KT) (MB)    (FT/S) (FT/S)
CAPE MAY NJ      0948   39 40  130/  2/  2 1024.0F
LEWES DE         0948      41  170/  2/  3 1024.2F
OCEAN-CITY-INLET 0936   42 42  170/  1/  2 1024.7F
WACHAPREAGUE VA  0948   44 45  250/  3/  3 1024.7R
THOMAS POINT MD  1000   40 38  170/  9/ 10   N/A
GOOSES REEF MD   0950   40     180/  4/  4 1024.7R
COVE POINT MD    0948   40     180/  6/  7 1024.6R
SOLOMONS ISLAND  0942   41 40  170/  3/  5   N/A
BISHOPS HEAD MD  0948   41 41  180/  5/  6 1024.5R
PINEY POINT MD   0948          170/  3/  4   N/A
POTOMAC MD       0950   41     200/  6/  6 1023.2F
CAMBRIDGE MD     0948   41 38  190/  3/  6 1023.7R
LEWISETTA VA     0948   42 42  200/  6/  6 1023.6F
RAPPAHANNOCK LGT 0948          160/  6/  6 1024.8F
STINGRAY PT      0950   41     180/  4/  6 1024.5F
YORK RVR RNG VA  0948   42     170/  6/  7 1023.5F
YORKTOWN VA      0948   44 42  150/  2/  4 1023.8F
JAMESTOWN VA     0950   43     150/  4/  4   N/A
DOMINION TERM VA 0948   44     150/  4/  4 1024.2F
KIPTOPEKE VA     0948      42                N/A
CHES BAY BRIDGE  0948   44 42  170/  3/  4 1024.5F
CAPE HENRY VA    0948   43     160/  3/  3   N/A
WILLOUBY STN VA  0948   44     180/  5/  5 1025.0F
S CRANEY ISL VA  0948   44     170/  6/  6 1024.2F
CAPE HENRY BUOY  0942      47                N/A     2/ 9
OFFSHORE WE BUOY 0951      49                N/A     2/11
64NM E OF VA BCH 0950   53 54  300/  6/  8 1024.6R   3/ 9   2/ 9
DUCK PIER NC     0948   44 44  350/  6/  6 1024.3F
44100 DUCK FRF   0935      46                N/A     2/ 9
44056 DUCK FRF   0930      44                N/A     2/10
OREGON INLET NC  0942   45 48  320/  4/  5 1024.8S
HATTERAS NC      0948      51   10/  4/  4 1024.1F
DIAMOND SHLS NC  0950   55 73  360/  8/ 10 1024.6F   3/ 8   2/ 8
CAPE LOOKOUT NC  0900   48      10/  5/  5 1024.3F
$$




USA.gov is the U.S. government's official web portal to all federal, state and local government web resources and services.